Hourly Data Report for January 17, 2022

RANKIN INLET A
NUNAVUT
Current Station Operator: NAVCAN

62°48'38.000" N
92°06'53.000" W
32.30 m
2303405
71083
YRT

Download Data

Hourly Data (January 2022)
Hourly Data Report for January 17, 2022
TIME
LST
Temp Definition
°C
Dew Point Definition
°C
Rel Hum Definition
%
Precip. Amount Definition
mm

Wind Dir Definition
10's deg

Wind Spd Definition
km/h
Visibility Definition
km
Stn Press Definition
kPa
Hmdx Definition


Wind Chill Definition


Weather Definition


00:00 -26.4 -30.1 72   35 46 2.4 99.84   -44 Ice Crystals,Blowing Snow
01:00 -27.9 -31.7 71   35 49 1.0 99.86   -46 Ice Crystals,Blowing Snow
02:00 -28.0 -31.8 71   34 47 2.0 99.92   -46 Ice Crystals,Blowing Snow
03:00 -29.0 -32.8 70   33 41 2.0 100.07   -46 Ice Crystals,Blowing Snow
04:00 -29.4 -33.4 70   34 47 1.6 100.07   -48 Ice Crystals,Blowing Snow
05:00 -29.9 -33.9 69   35 48 1.6 100.10   -49 Ice Crystals,Blowing Snow
06:00 -30.2 -34.2 69   34 43 2.0 100.15   -48 Ice Crystals,Blowing Snow
07:00 -30.6 -34.6 69   34 54 1.2 100.12   -50 Ice Crystals,Blowing Snow
08:00 -31.6 -35.6 68   34 37 0.8 100.23   -49 Ice Crystals,Blowing Snow
09:00 -32.2 -36.3 68   34 44 0.6 100.24   -51 Ice Crystals,Blowing Snow
10:00 -32.7 -36.8 68   34 37 0.6 100.32   -51 Ice Crystals,Blowing Snow
11:00 -32.9 -37.0 67   34 50 0.4 100.27   -53 Ice Crystals,Blowing Snow
12:00 -32.8 -36.9 67   33 42 0.6 100.37   -52 Ice Crystals,Blowing Snow
13:00 -32.8 -37.0 67   33 44 0.4 100.31   -52 Ice Crystals,Blowing Snow
14:00 -32.6 -36.8 67   35 37 0.6 100.42   -50 Ice Crystals,Blowing Snow
15:00 -32.8 -37.0 67   34 39 0.6 100.46   -51 Ice Crystals,Blowing Snow
16:00 -33.0 -37.2 67   33 42 0.4 100.43   -52 Ice Crystals,Blowing Snow
17:00 -33.0 -37.1 67   33 46 0.6 100.44   -53 Snow,Blowing Snow
18:00 -32.7 -36.9 67   33 55 0.6 100.36   -53 Ice Crystals,Blowing Snow
19:00 -32.8 -37.0 67   34 43 0.8 100.43   -52 Ice Crystals,Blowing Snow
20:00 -32.8 -37.0 67   34 47 0.4 100.44   -52 Ice Crystals,Blowing Snow
21:00 -32.9 -37.1 67   33 43 0.6 100.46   -52 Ice Crystals,Blowing Snow
22:00 -33.1 -37.3 67   34 44 0.8 100.43   -52 Ice Crystals,Blowing Snow
23:00 -32.7 -36.9 67   34 34 1.6 100.43   -50 Ice Crystals,Blowing Snow

Notes on Data Quality.

Legend

  • E = Estimated
  • M = Missing
  • NA = Not Available*
  • [empty] = Indicates an unobserved value
Date modified: